Location: Pasadena, ca
(34.1243°N, 118.1037°W)
Time: 03:09:46
(UTC-08:00)

Envisat - Pass Details

Date: 08 October 2017
Orbit: 764 x 766 km, 98.2° (Epoch: 16 December)

Event Time Altitude Azimuth Distance (km) Brightness Sun altitude
Exits shadow 19:21:43 12° 58° (ENE) 2,193 4.9 -12.2°
Drops below altitude 10° 19:23:00 10° 43° (NE) 2,307 5.1 -12.5°
Sets 19:26:55 0° 13° (NNE) 3,239 6.1 -13.3°
